Location: Pedholt
(56.0260°N, 10.2097°E)
Time: 00:44:31
(UTC+00:00)

Transit 2A Rocket - Pass Details

Date: 31 July 2021
Orbit: 586 x 917 km, 66.7° (Epoch: 27 September)

Event Time Altitude Azimuth Distance (km) Brightness Sun altitude
Rises 23:09:55 0° 311° (NW) 3,253 9.0 -15.9°
Reaches altitude 10° 23:12:46 10° 296° (WNW) 2,381 7.9 -15.9°
Maximum altitude 23:16:47 21° 249° (WSW) 1,796 6.7 -15.9°
Enters shadow 23:19:10 16° 218° (SW) 2,067 6.8 -15.9°
Drops below altitude 10° 23:21:00 10° 202° (SSW) 2,514 - -16.0°
Sets 23:24:07 0° 187° (S) 3,488 - -16.0°
